EW8130 Weather Reports


time (UTC)temp
C
wind
direction
speed
KPH
gust
KPH
rain 1hr
cm
rain 24hr
cm
rain mn
cm
humidity
%
barometer
mb
20260506061517 17 286 0.0 4.8 0.00 0.00 0.00 79 988.3
20260506044602 20 205 1.6 11.3 0.00 0.00 0.00 76 988.0
20260506043058 20 359 0.0 3.2 0.00 0.00 0.00 76 987.7
20260506041606 21 359 0.0 6.4 0.00 0.00 0.00 76 987.5
20260506040053 21 359 0.0 1.6 0.00 0.00 0.00 76 987.4
20260506034554 22 359 0.0 14.5 0.00 0.00 0.00 75 987.1
20260506033050 22 280 0.0 12.9 0.00 0.00 0.00 73 986.9
20260506031551 23 359 0.0 3.2 0.00 0.00 0.00 73 986.9
20260506030045 23 236 0.0 4.8 0.00 0.00 0.00 72 986.5
20260506024542 23 359 0.0 3.2 0.00 0.00 0.00 73 986.2
20260506023059 23 291 0.0 1.6 0.00 0.00 0.00 73 985.4
20260506021604 25 249 0.0 12.9 0.00 0.00 0.00 71 985.1
20260506020040 26 89 0.0 1.6 0.00 0.00 0.00 78 984.5
20260506014539 26 126 0.0 1.6 0.00 0.00 0.00 78 984.7
20260506013039 26 112 0.0 1.6 0.00 0.00 0.00 78 984.8
20260506011540 26 135 0.0 1.6 0.00 0.00 0.00 77 984.2
20260506010038 27 150 0.0 3.2 0.00 0.00 0.00 77 984.1
20260506004537 27 182 0.0 1.6 0.00 0.00 0.00 76 984.3
20260506003039 27 133 0.0 9.7 0.00 0.00 0.00 76 983.8
20260506001537 27 83 0.0 12.9 0.00 0.00 0.00 75 983.5
20260506000036 27 107 0.0 12.9 0.00 0.00 0.00 74 983.4
20260505234535 28 58 0.0 14.5 0.00 0.00 0.00 74 983.3
20260505233037 28 115 0.0 16.1 0.00 0.00 0.00 72 983.3
20260505231547 28 93 0.0 17.7 0.00 0.00 0.00 72 983.4
20260505230036 29 144 1.6 16.1 0.00 0.00 0.00 70 983.0
20260505224534 30 75 0.0 14.5 0.00 0.00 0.00 69 982.9
20260505223032 30 77 1.6 16.1 0.00 0.00 0.00 69 982.8
20260505221534 30 76 0.0 14.5 0.00 0.00 0.00 69 982.9
20260505220032 30 123 0.0 16.1 0.00 0.00 0.00 68 982.9
20260505214542 31 104 1.6 11.3 0.00 0.00 0.00 66 982.9
20260505213036 30 68 0.0 14.5 0.00 0.00 0.00 65 983.0
20260505211527 30 114 0.0 16.1 0.00 0.00 0.00 65 983.3
20260505210026 30 66 0.0 3.2 0.00 0.00 0.00 66 983.3
20260505204526 30 99 0.0 12.9 0.00 0.00 0.00 65 983.6
20260505203030 30 118 1.6 12.9 0.00 0.00 0.00 66 983.7
20260505201530 30 93 1.6 16.1 0.00 0.00 0.00 66 983.8
20260505200021 29 83 0.0 9.7 0.00 0.00 0.00 66 983.9
20260505194517 28 119 3.2 16.1 0.00 0.00 0.00 69 983.9
20260505193024 28 111 0.0 20.9 0.00 0.00 0.00 69 983.9
20260505191516 28 75 6.4 20.9 0.00 0.00 0.00 69 984.1
20260505190013 28 77 6.4 22.5 0.00 0.00 0.00 71 984.2
20260505184510 27 57 0.0 17.7 0.00 0.00 0.00 71 984.4
20260505183017 27 74 6.4 22.5 0.00 0.00 0.00 71 984.4
20260505181507 27 106 1.6 17.7 0.00 0.00 0.00 72 984.5
20260505180013 27 135 0.0 16.1 0.00 0.00 0.00 73 984.5
20260505174508 27 87 1.6 14.5 0.00 0.00 0.00 71 984.6
20260505173004 27 85 0.0 12.9 0.00 0.00 0.00 73 984.5
20260505171506 27 97 6.4 22.5 0.00 0.00 0.00 73 984.6
20260505170111 26 117 1.6 17.7 0.00 0.00 0.00 75 984.7
20260505164556 25 108 1.6 30.6 0.00 0.00 0.00 76 984.6
20260505163056 25 86 1.6 22.5 0.00 0.00 0.00 76 984.5
20260505161614 25 101 3.2 20.9 0.00 0.00 0.00 76 984.4
20260505153100 24 130 8.0 22.5 0.00 0.00 0.00 80 984.5
20260505151558 23 80 4.8 24.1 0.00 0.00 0.00 81 984.6
20260505124525 21 119 0.0 19.3 0.00 0.00 0.00 86 984.2
20260505123024 21 92 0.0 17.7 0.00 0.00 0.00 86 983.8
20260505121526 21 116 1.6 16.1 0.00 0.00 0.00 86 983.6
20260505120022 21 110 0.0 30.6 0.00 0.00 0.00 87 983.5
20260505114521 21 104 0.0 19.3 0.00 0.00 0.00 87 983.7
20260505113022 21 102 0.0 14.5 0.00 0.00 0.00 86 983.5
20260505111519 21 119 4.8 17.7 0.00 0.00 0.00 86 983.5
20260505101514 21 90 3.2 24.1 0.00 0.00 0.00 85 983.7
20260505100010 21 359 0.0 17.7 0.00 0.00 0.00 85 983.6
20260505094505 21 93 3.2 25.7 0.00 0.00 0.00 85 983.8
20260505093006 21 87 0.0 14.5 0.00 0.00 0.00 85 983.9
20260505091501 21 122 0.0 24.1 0.00 0.00 0.00 85 983.8
20260505090108 21 134 11.3 24.1 0.00 0.00 0.00 85 983.8
20260505084558 21 106 3.2 29.0 0.00 0.00 0.00 85 983.9
20260505083102 21 124 0.0 22.5 0.00 0.00 0.00 85 984.0
20260505081558 21 128 0.0 22.5 0.00 0.00 0.00 85 984.0
20260505080055 21 116 3.2 24.1 0.00 0.00 0.00 85 984.2
20260505074550 21 106 1.6 20.9 0.00 0.00 0.00 85 984.3
20260505073048 21 113 3.2 17.7 0.00 0.00 0.00 84 984.7
20260505071546 21 104 1.6 17.7 0.00 0.00 0.00 84 984.8